TIME,DELAY(SENSOR),PRES,OXYGEN,RAWTEMP,T(OPTODE),TCPHASE,FLUOR,BETA(BETA700),BETA(BETA412),BETA(BETA440),CDOM,C(CSC),ED(ED411.90),ED(ED443.80),ED(ED489.40),ED(ED554.70),LU(LU412.20),LU(LU443.80),LU(LU489.40),LU(LU555.00),COMP,TILTX,TILTY,CHECK
1347919210,5805,864.6599731445312000,169.0493927001953000,398.1010131835937500,10.6605796813964840,38.2645988464355500,53,101,96,78,74,13295,2146956050,2147511963,2147282185,2147500818,2147089197,2146932955,2147701238,2147120539,2365,-1,9,10835
1347922806,5806,984.1599731445312000,184.2579040527343800,479.8698120117187500,8.1526956558227540,38.5630302429199200,52,98,97,77,76,13290,2146959058,2147516068,2147292059,2147515821,2147092598,2146923428,2147714459,2147120576,1659,-1,8,54935
1347926406,5807,1007.2100219726562000,195.3721008300781200,493.2105102539062500,7.7399802207946780,38.0696907043457000,52,102,98,78,76,13263,2146960749,2147516260,2147292269,2147516214,2147092845,2146919360,2147715364,2147123236,3348,-1,8,45212
1347930006,5805,1016.0000000000000000,195.0108032226562500,493.8973083496094000,7.7186989784240720,38.1050605773925800,52,99,98,77,75,13265,2146959634,2147515611,2147293613,2147519744,2147090779,2146921014,2147718189,2147119542,3378,-1,8,24941
1347933606,5808,1014.1300048828125000,196.0281982421875000,495.1783142089844000,7.6790051460266110,38.0633201599121100,52,99,98,77,77,13262,2146959232,2147515291,2147291081,2147514834,2147095872,2146923876,2147716251,2147120832,97,0,8,34421
1347937206,5803,1020.4799804687500000,196.2928924560547000,495.9042053222656000,7.6565060615539550,38.0582008361816400,52,152,98,78,77,13262,2146958811,2147516617,2147292050,2147516873,2147091437,2146924571,2147723328,2147117302,3535,-1,8,44694
1347940806,5807,1023.4000244140625000,196.8995056152343800,496.8017883300781000,7.6286821365356445,38.0361595153808600,52,99,100,79,76,13260,2146959058,2147517275,2147293906,2147519588,2147090240,2146925229,2147716809,2147118482,3277,-1,8,27840
1347944406,5807,1022.5399780273438000,198.3070068359375000,497.8640136718750000,7.5957450866699220,37.9669609069824200,52,100,99,77,77,13260,2146958857,2147518656,2147294884,2147520146,2147092726,2146922852,2147716800,2147118345,236,-1,8,30795
1347948006,5806,1026.3299560546875000,198.6089019775390600,497.8085021972656000,7.5974659919738770,37.9475517272949200,54,99,99,76,76,13261,2146960118,2147517686,2147294436,2147517019,2147093686,2146927890,2147717970,2147120621,297,-1,8,16349
1347951606,5809,1027.2299804687500000,197.7516937255859400,498.1062927246094000,7.5882310867309570,38.0055809020996100,52,131,99,77,76,13261,2146958518,2147513462,2147294720,2147518729,2147092434,2146922066,2147716096,2147118729,510,-1,8,41109
1347955206,5805,1025.7700195312500000,199.7485961914062500,498.3494873046875000,7.5806908607482910,37.8858489990234400,52,100,98,77,75,13262,2146958500,2147517385,2147295058,2147516726,2147093248,2146924443,2147715876,2147122404,3107,-1,8,65352
1347958806,5808,1025.7199707031250000,200.8753051757812500,499.8786926269531000,7.5332570075988770,37.8431205749511700,52,101,98,78,77,13260,2146958317,2147517430,2147293257,2147516443,2147092544,2146926244,2147721371,2147119753,492,-1,8,39098
1347962406,5804,1026.5400390625000000,201.6403045654297000,500.2727966308594000,7.5210289955139160,37.8023414611816400,51,101,98,80,76,13260,2146956781,2147517842,2147294089,2147521124,2147090861,2146928630,2147717156,2147120822,489,-1,8,22242
1347966006,5806,1022.8300170898438000,201.0119018554687500,501.0137023925781000,7.4980421066284180,37.8543815612793000,53,102,98,78,76,13260,2146961243,2147514203,2147292928,2147522349,2147091209,2146923785,2147721618,2147116745,3269,-1,9,16648
1347969606,5806,1030.2700195312500000,200.4635009765625000,500.7485046386719000,7.5062689781188965,37.8831901550293000,52,101,97,77,76,13259,2146957942,2147517238,2147295021,2147519680,2147092315,2146922989,2147721517,2147119186,3492,-1,8,21081
1347973206,5806,1025.9599609375000000,200.5437927246093800,500.9390869140625000,7.5003547668457030,37.8814811706543000,52,99,98,77,76,13253,2146959350,2147517979,2147292790,2147521892,2147090368,2146927616,2147720027,2147118226,3479,-1,8,38309
1347976806,5806,1025.5799560546875000,199.7019958496093800,501.5203857421875000,7.4823179244995120,37.9434394836425800,52,98,98,76,76,13255,2146960091,2147516571,2147290294,2147520429,2147092470,2146927286,2147717467,2147121554,3275,-1,8,41162
1347980406,5805,1027.6500244140625000,201.9701995849609400,502.2214050292969000,7.4605607986450195,37.8169784545898440,52,99,98,78,76,13256,2146960676,2147516836,2147292827,2147517988,2147092928,2146927177,2147716397,2147116946,3370,-1,8,5115
1347984006,5806,1028.0300292968750000,201.3986968994140600,502.2153930664062500,7.4607467651367190,37.8519096374511700,52,103,97,85,75,13254,2146964461,2147515693,2147294582,2147519515,2147088557,2146925888,2147720850,2147118774,3462,-1,8,19037
1347987606,5808,1025.6600341796875000,201.9329986572265600,502.5934143066406000,7.4490151405334470,37.8255615234375000,52,102,97,77,75,13143,2146959259,2147515602,2147294016,2147518592,2147092681,2146923090,2147719826,2147120082,87,-1,8,56148
1347991206,5808,1026.6199951171875000,201.4091033935547000,503.1801147460937500,7.4307999610900880,37.8680992126464840,52,101,98,78,75,13139,2146957147,2147517293,2147294144,2147520036,2147093366,2146927094,2147722011,2147118006,328,-1,8,28417
1347994806,5810,1033.3299560546875000,202.2342987060547000,501.7189941406250000,7.4761519432067870,37.7921409606933600,52,101,99,77,76,13141,2146958985,2147512576,2147292964,2147519661,2147091264,2146918308,2147718089,2147120896,3,-1,8,60125
1347998406,5804,1027.9499511718750000,201.4667968750000000,502.8211059570312500,7.4419450759887695,37.8573913574218750,52,101,99,77,76,13142,2146959131,2147516032,2147295515,2147517888,2147091190,2146924672,2147717056,2147119442,3572,-1,8,48732
1348002006,5806,1028.4200439453125000,203.0193939208984400,503.0747985839844000,7.4340701103210450,37.7678794860839840,53,103,98,76,76,13143,2146961042,2147520173,2147295698,2147519104,2147092388,2146923556,2147716077,2147119387,3347,-1,8,23275
1348005606,5806,1029.9000244140625000,202.4385986328125000,502.4114990234375000,7.4546589851379395,37.7910194396972660,52,104,98,79,76,13140,2146959168,2147516297,2147294345,2147520749,2147092059,2146921380,2147716187,2147119268,3463,-1,8,48682
1348009206,5806,1026.5200195312500000,201.9786071777343800,503.1250915527344000,7.4325070381164550,37.8322486877441400,53,102,101,79,77,13139,2146961901,2147515081,2147292242,2147520795,2147093632,2146923163,2147718848,2147118400,712,-1,8,52458
1348012806,5808,1027.8599853515625000,202.4201965332031200,503.5008850097656000,7.4208397865295410,37.8119506835937500,52,100,99,78,75,13137,2146960841,2147518363,2147290441,2147519771,2147091456,2146921097,2147722706,2147118217,753,-1,8,37518
1348016406,5809,1030.0400390625000000,203.6472015380859400,504.3335876464844000,7.3949837684631350,37.7513389587402340,52,101,98,77,76,13136,2146958528,2147516297,2147291382,2147519881,2147092169,2146923520,2147719643,2147121014,218,0,8,63922
1348020006,5807,1033.5500488281250000,202.4324035644531200,502.3667907714844000,7.4560480117797850,37.7913513183593750,51,101,104,77,76,13137,2146959542,2147516114,2147290340,2147516242,2147090806,2146924909,2147720109,2147118710,3214,-1,8,57688
1348023606,5806,1033.7099609375000000,201.1667938232422000,502.0871887207031000,7.4647250175476070,37.8635101318359400,52,101,98,77,76,13140,2146957622,2147516205,2147293924,2147517860,2147092205,2146926528,2147723657,2147119890,561,0,8,39652
1348027206,5806,1030.6999511718750000,199.7411956787109400,499.1524963378906000,7.5557851791381840,37.9000205993652340,52,100,98,76,75,13137,2146960201,2147514166,2147293741,2147517174,2147093037,2146921709,2147717494,2147121243,3413,-1,8,36363
1348030806,5809,1027.2500000000000000,198.9042968750000000,499.2847900390625000,7.5516800880432130,37.9541511535644500,53,100,100,77,75,13136,2146960338,2147515876,2147291154,2147517266,2147090541,2146924973,2147717074,2147123026,3581,-1,8,2017
1348034406,5809,1028.4300537109375000,199.4328002929687500,499.2272949218750000,7.5534639358520510,37.9209785461425800,53,101,98,77,75,13133,2146963547,2147513627,2147291154,2147520484,2147089472,2146926089,2147716955,2147123190,100,-1,8,32318
1348038006,5805,1028.0200195312500000,201.0789947509765600,500.5481872558594000,7.5124850273132320,37.8423995971679700,52,101,100,78,75,13134,2146959771,2147514934,2147294637,2147520813,2147092489,2146924745,2147720530,2147119323,3416,0,8,63038
1348041606,5807,1028.8699951171875000,201.0695953369140600,500.0609130859375000,7.5276050567626950,37.8341789245605500,53,101,98,77,76,13134,2146960585,2147516754,2147296347,2147520018,2147091547,2146922514,2147716690,2147118454,527,-1,8,64881
1348045206,5806,1023.8699951171875000,200.5216979980468800,500.6111145019531000,7.5105338096618650,37.8779602050781250,52,101,97,77,76,13132,2146960320,2147514084,2147296000,2147518866,2147091858,2146925714,2147719241,2147118098,3065,-1,8,599
1348048806,5806,1023.3900146484375000,200.5664062500000000,501.8991088867187500,7.4705638885498050,37.8968200683593750,52,100,99,78,76,13131,2146961142,2147509266,2147296667,2147519926,2147092461,2146925348,2147719542,2147119570,3307,-1,8,47905
1348052406,5807,1027.3299560546875000,199.1219024658203000,502.2950134277344000,7.4582748413085940,37.9934196472168000,52,100,97,77,77,13129,2146958080,2147515730,2147294253,2147522898,2147093494,2146921718,2147718034,2147120822,3520,-1,8,60355
1348056006,5809,1022.0100097656250000,204.1562957763672000,504.6910095214844000,7.3838858604431150,37.7268714904785160,52,100,100,79,76,13130,2146963026,2147512594,2147293412,2147522349,2147093449,2146923090,2147722614,2147116772,39,-1,8,8382
1348059606,5807,1024.7500000000000000,204.1546936035156200,503.9464111328125000,7.4070072174072270,37.7141494750976560,52,101,97,77,76,13132,2146957851,2147518500,2147293961,2147517650,2147092434,2146920301,2147722139,2147118866,470,-1,8,27278
1348061754,5805,1023.9799804687500000,204.1585998535156200,503.9663085937500000,7.4063901901245120,37.7136993408203100,52,103,101,77,76,13256,2146960768,2147515520,2147293129,2147522331,2147093842,2146925312,2147719469,2147120356,192,-1,8,40263
